QPF
0.02 0.03 0.05 0.04 0.03 0.02 0.02 0.04 0.07 0.06 0.08 0.08 0.08 0.08 0.09 0.10 0.12 0.04 0.02 0.03 0.03 0.03 0.02 0.01 0.01 0.01 0.01 0.01 0.02 0.02 0.02 0.02 0.01 0.01 0.01 0.01 0.01 0.01 0.01 0.01 0.01 0.01 0.01
0.01 0.01 0.03 0.04 0.03 0.03 0.03 0.05 0.06 0.06 0.07 0.06 0.07 0.07 0.05 0.06 0.10 0.06 0.03 0.04 0.05 0.04 0.04 0.04 0.03 0.02 0.01 0.01 0.02 0.02 0.03 0.03 0.02 0.01 0.02 0.01 0.02 0.01 0.01 0.01 0.01 0.01 0.01
0.01 0.01 0.01 0.02 0.02 0.03 0.03 0.05 0.07 0.07 0.06 0.05 0.06 0.05 0.04 0.04 0.08 0.06 0.04 0.02 0.03 0.03 0.04 0.05 0.05 0.04 0.03 0.03 0.02 0.02 0.02 0.02 0.02 0.02 0.02 0.01 0.01 0.01 0.01 0.02 0.01 0.01 0.01
0.01 0.01 0.01 0.02 0.02 0.03 0.03 0.04 0.05 0.06 0.06 0.06 0.05 0.05 0.04 0.04 0.04 0.04 0.03 0.02 0.03 0.05 0.05 0.05 0.05 0.04 0.04 0.03 0.03 0.02 0.02 0.01 0.01 0.01 0.02 0.01 0.01 0.02 0.01 0.02 0.01 0.01 0.01
0.01 0.01 0.01 0.01 0.02 0.04 0.04 0.04 0.04 0.04 0.05 0.05 0.04 0.05 0.04 0.04 0.03 0.04 0.04 0.03 0.03 0.04 0.05 0.04 0.06 0.06 0.04 0.04 0.04 0.03 0.02 0.02 0.02 0.01 0.01 0.01 0.01 0.02 0.02 0.02 0.01 0.01 0.02
0.00 0.00 0.01 0.01 0.02 0.03 0.03 0.04 0.05 0.03 0.03 0.03 0.02 0.04 0.04 0.04 0.04 0.04 0.04 0.05 0.06 0.05 0.05 0.06 0.09 0.05 0.04 0.03 0.03 0.03 0.03 0.03 0.03 0.02 0.02 0.02 0.02 0.01 0.01 0.01 0.01 0.01 0.02
0.01 0.00 0.01 0.01 0.01 0.02 0.02 0.02 0.03 0.03 0.02 0.02 0.02 0.03 0.03 0.04 0.05 0.04 0.05 0.06 0.06 0.05 0.05 0.05 0.05 0.03 0.02 0.02 0.03 0.04 0.05 0.05 0.03 0.02 0.02 0.02 0.03 0.02 0.02 0.01 0.01 0.02 0.02
0.03 0.02 0.01 0.01 0.02 0.02 0.02 0.02 0.02 0.02 0.02 0.01 0.02 0.03 0.03 0.04 0.05 0.04 0.04 0.03 0.03 0.03 0.04 0.04 0.03 0.02 0.02 0.03 0.03 0.03 0.04 0.04 0.04 0.04 0.03 0.03 0.03 0.02 0.02 0.02 0.02 0.02 0.02
0.06 0.05 0.03 0.03 0.03 0.02 0.02 0.03 0.01 0.01 0.03 0.03 0.02 0.03 0.03 0.03 0.03 0.03 0.04 0.04 0.03 0.02 0.02 0.03 0.02 0.03 0.03 0.03 0.03 0.02 0.03 0.02 0.03 0.03 0.04 0.04 0.03 0.02 0.02 0.02 0.03 0.02 0.01
0.07 0.06 0.05 0.03 0.03 0.02 0.02 0.02 0.01 0.02 0.03 0.02 0.01 0.01 0.02 0.02 0.02 0.03 0.04 0.05 0.04 0.03 0.02 0.02 0.03 0.02 0.03 0.04 0.05 0.04 0.02 0.02 0.03 0.03 0.03 0.04 0.04 0.03 0.02 0.02 0.02 0.02 0.03
0.05 0.05 0.04 0.03 0.03 0.02 0.02 0.01 0.02 0.02 0.02 0.01 0.01 0.02 0.02 0.01 0.01 0.02 0.03 0.04 0.04 0.03 0.02 0.02 0.02 0.02 0.04 0.06 0.06 0.04 0.02 0.01 0.01 0.02 0.02 0.02 0.02 0.02 0.02 0.02 0.02 0.03 0.03
0.03 0.04 0.04 0.03 0.03 0.03 0.03 0.03 0.03 0.03 0.02 0.02 0.02 0.02 0.02 0.01 0.01 0.02 0.02 0.01 0.02 0.02 0.02 0.02 0.02 0.03 0.06 0.08 0.04 0.03 0.02 0.01 0.01 0.01 0.01 0.01 0.02 0.02 0.02 0.02 0.02 0.03 0.03
0.03 0.04 0.05 0.04 0.03 0.02 0.03 0.04 0.04 0.03 0.02 0.02 0.01 0.02 0.02 0.02 0.01 0.01 0.02 0.01 0.01 0.02 0.02 0.01 0.01 0.04 0.04 0.03 0.02 0.02 0.02 0.03 0.02 0.01 0.01 0.01 0.01 0.01 0.02 0.02 0.02 0.03 0.03
0.03 0.03 0.05 0.05 0.03 0.03 0.04 0.04 0.04 0.03 0.02 0.01 0.01 0.01 0.02 0.02 0.02 0.02 0.02 0.02 0.01 0.01 0.01 0.02 0.02 0.02 0.02 0.02 0.02 0.02 0.02 0.02 0.02 0.01 0.00 0.00 0.00 0.00 0.00 0.00 0.01 0.01 0.02
0.03 0.03 0.03 0.03 0.03 0.05 0.06 0.04 0.04 0.03 0.02 0.02 0.01 0.01 0.01 0.01 0.01 0.02 0.02 0.02 0.02 0.01 0.01 0.02 0.01 0.02 0.02 0.02 0.02 0.01 0.01 0.01 0.01 0.01 0.01 0.00 0.00 0.01 0.00 0.00 0.00 0.00 0.00
0.04 0.04 0.03 0.03 0.04 0.04 0.03 0.03 0.02 0.02 0.02 0.01 0.01 0.01 0.00 0.00 0.00 0.01 0.02 0.02 0.02 0.01 0.01 0.01 0.01 0.01 0.02 0.03 0.02 0.01 0.00 0.00 0.00 0.00 0.01 0.01 0.01 0.02 0.01 0.00 0.00 0.00 0.00
0.05 0.05 0.04 0.05 0.06 0.05 0.04 0.03 0.02 0.03 0.02 0.01 0.01 0.01 0.01 0.01 0.01 0.01 0.02 0.03 0.02 0.02 0.02 0.01 0.01 0.01 0.02 0.02 0.02 0.01 0.01 0.01 0.00 0.00 0.01 0.01 0.00 0.01 0.00 0.00 0.00 0.00 0.00
0.07 0.07 0.07 0.06 0.08 0.07 0.06 0.04 0.04 0.04 0.03 0.03 0.03 0.02 0.02 0.02 0.03 0.03 0.05 0.05 0.04 0.03 0.03 0.02 0.01 0.01 0.01 0.02 0.01 0.01 0.01 0.01 0.01 0.01 0.02 0.01 0.00 0.00 0.00 0.00 0.00 0.00 0.00
0.08 0.11 0.11 0.09 0.08 0.07 0.06 0.07 0.06 0.06 0.07 0.06 0.05 0.04 0.02 0.03 0.03 0.03 0.04 0.04 0.05 0.05 0.06 0.04 0.02 0.02 0.02 0.02 0.02 0.02 0.01 0.02 0.02 0.02 0.01 0.01 0.01 0.01 0.01 0.01 0.00 0.00 0.00
0.10 0.12 0.13 0.10 0.07 0.07 0.07 0.07 0.08 0.07 0.07 0.06 0.05 0.03 0.02 0.02 0.03 0.03 0.03 0.03 0.04 0.05 0.06 0.05 0.03 0.03 0.03 0.03 0.03 0.03 0.04 0.03 0.03 0.02 0.02 0.02 0.02 0.02 0.01 0.01 0.01 0.00 0.00
0.10 0.11 0.11 0.09 0.07 0.06 0.06 0.08 0.08 0.07 0.06 0.04 0.03 0.02 0.01 0.02 0.03 0.03 0.03 0.04 0.06 0.06 0.06 0.04 0.03 0.03 0.03 0.03 0.03 0.04 0.03 0.03 0.02 0.01 0.01 0.01 0.02 0.02 0.01 0.01 0.01 0.00 0.00
0.09 0.10 0.12 0.15 0.13 0.11 0.09 0.09 0.08 0.06 0.05 0.04 0.04 0.03 0.03 0.03 0.04 0.06 0.06 0.06 0.07 0.07 0.05 0.04 0.02 0.02 0.02 0.03 0.03 0.03 0.02 0.01 0.01 0.00 0.01 0.00 0.01 0.02 0.02 0.02 0.01 0.01 0.01
0.09 0.09 0.13 0.15 0.15 0.14 0.14 0.12 0.11 0.09 0.08 0.07 0.06 0.04 0.03 0.04 0.04 0.04 0.05 0.07 0.07 0.05 0.04 0.03 0.02 0.02 0.02 0.02 0.02 0.01 0.01 0.01 0.00 0.01 0.02 0.01 0.01 0.01 0.02 0.02 0.02 0.01 0.01
0.09 0.09 0.14 0.16 0.14 0.14 0.17 0.15 0.12 0.10 0.09 0.08 0.06 0.04 0.03 0.04 0.04 0.05 0.05 0.04 0.03 0.03 0.04 0.03 0.02 0.01 0.01 0.01 0.01 0.01 0.00 0.00 0.01 0.00 0.01 0.01 0.01 0.01 0.02 0.02 0.02 0.03 0.02
0.11 0.13 0.14 0.15 0.14 0.16 0.21 0.18 0.14 0.11 0.10 0.08 0.06 0.05 0.05 0.06 0.07 0.06 0.05 0.05 0.03 0.03 0.04 0.03 0.01 0.01 0.01 0.01 0.01 0.01 0.01 0.01 0.01 0.01 0.01 0.01 0.01 0.01 0.01 0.01 0.01 0.01 0.01
0.15 0.16 0.19 0.20 0.19 0.20 0.22 0.17 0.13 0.11 0.09 0.07 0.05 0.04 0.05 0.05 0.05 0.05 0.04 0.04 0.04 0.04 0.04 0.03 0.02 0.02 0.01 0.01 0.01 0.01 0.01 0.01 0.01 0.01 0.01 0.01 0.01 0.01 0.01 0.01 0.01 0.01 0.01
MSLP
1015.40 1015.60 1015.72 1015.78 1015.81 1015.83 1015.88 1015.96 1016.08 1016.23 1016.40 1016.58 1016.74 1016.88 1017.01 1017.13 1017.25 1017.39 1017.54 1017.70 1017.87 1018.02 1018.17 1018.31 1018.44 1018.58 1018.73 1018.90 1019.08 1019.27 1019.47 1019.65 1019.81 1019.95 1020.07 1020.18 1020.29 1020.41 1020.53 1020.66 1020.78 1020.90 1021.00
1015.22 1015.42 1015.55 1015.63 1015.68 1015.72 1015.78 1015.87 1016.00 1016.16 1016.35 1016.53 1016.71 1016.86 1016.99 1017.11 1017.22 1017.33 1017.45 1017.57 1017.71 1017.85 1018.00 1018.16 1018.33 1018.51 1018.70 1018.90 1019.09 1019.28 1019.46 1019.62 1019.75 1019.87 1019.98 1020.09 1020.20 1020.33 1020.47 1020.61 1020.74 1020.86 1020.97
1014.98 1015.18 1015.34 1015.46 1015.55 1015.63 1015.72 1015.84 1015.99 1016.17 1016.35 1016.54 1016.72 1016.87 1016.99 1017.09 1017.17 1017.24 1017.32 1017.40 1017.50 1017.62 1017.77 1017.94 1018.13 1018.34 1018.57 1018.79 1019.00 1019.19 1019.35 1019.49 1019.60 1019.70 1019.79 1019.90 1020.02 1020.17 1020.33 1020.49 1020.65 1020.79 1020.90
1014.69 1014.91 1015.10 1015.27 1015.43 1015.57 1015.72 1015.89 1016.06 1016.25 1016.44 1016.62 1016.78 1016.91 1017.02 1017.09 1017.13 1017.16 1017.19 1017.22 1017.28 1017.37 1017.49 1017.66 1017.86 1018.10 1018.34 1018.58 1018.81 1019.00 1019.16 1019.28 1019.37 1019.45 1019.53 1019.63 1019.76 1019.92 1020.11 1020.30 1020.49 1020.65 1020.80
1014.39 1014.62 1014.86 1015.09 1015.32 1015.55 1015.77 1015.98 1016.19 1016.39 1016.57 1016.74 1016.88 1016.99 1017.07 1017.11 1017.12 1017.11 1017.08 1017.07 1017.08 1017.13 1017.22 1017.37 1017.57 1017.81 1018.06 1018.31 1018.55 1018.74 1018.90 1019.01 1019.09 1019.15 1019.23 1019.32 1019.46 1019.63 1019.83 1020.04 1020.26 1020.46 1020.63
1014.07 1014.32 1014.61 1014.91 1015.23 1015.54 1015.83 1016.10 1016.34 1016.55 1016.73 1016.88 1017.01 1017.09 1017.15 1017.16 1017.14 1017.10 1017.04 1016.98 1016.94 1016.94 1017.00 1017.11 1017.29 1017.51 1017.76 1018.02 1018.26 1018.46 1018.62 1018.73 1018.81 1018.87 1018.93 1019.02 1019.14 1019.31 1019.51 1019.74 1019.98 1020.20 1020.41
1013.74 1014.01 1014.35 1014.73 1015.12 1015.51 1015.87 1016.19 1016.46 1016.68 1016.86 1017.00 1017.11 1017.19 1017.23 1017.24 1017.21 1017.14 1017.05 1016.96 1016.88 1016.83 1016.84 1016.91 1017.05 1017.24 1017.48 1017.73 1017.97 1018.19 1018.36 1018.48 1018.56 1018.62 1018.68 1018.75 1018.86 1019.01 1019.20 1019.42 1019.65 1019.89 1020.11
1013.41 1013.71 1014.10 1014.54 1015.00 1015.45 1015.86 1016.22 1016.51 1016.75 1016.93 1017.07 1017.18 1017.26 1017.30 1017.32 1017.29 1017.23 1017.13 1017.01 1016.90 1016.80 1016.76 1016.77 1016.86 1017.02 1017.23 1017.47 1017.71 1017.94 1018.13 1018.27 1018.37 1018.44 1018.49 1018.55 1018.64 1018.76 1018.91 1019.10 1019.32 1019.54 1019.77
1013.11 1013.45 1013.87 1014.35 1014.86 1015.35 1015.79 1016.17 1016.48 1016.72 1016.91 1017.05 1017.17 1017.27 1017.34 1017.38 1017.38 1017.33 1017.24 1017.11 1016.96 1016.83 1016.73 1016.69 1016.72 1016.83 1017.00 1017.22 1017.47 1017.70 1017.91 1018.08 1018.21 1018.30 1018.36 1018.42 1018.48 1018.56 1018.67 1018.82 1019.00 1019.19 1019.41
1012.87 1013.24 1013.69 1014.20 1014.72 1015.23 1015.68 1016.07 1016.38 1016.61 1016.80 1016.95 1017.09 1017.21 1017.31 1017.39 1017.43 1017.41 1017.33 1017.20 1017.04 1016.88 1016.73 1016.63 1016.60 1016.65 1016.78 1016.97 1017.20 1017.44 1017.68 1017.88 1018.04 1018.16 1018.24 1018.30 1018.36 1018.41 1018.49 1018.59 1018.72 1018.87 1019.06
1012.72 1013.12 1013.59 1014.11 1014.63 1015.13 1015.56 1015.93 1016.22 1016.44 1016.62 1016.78 1016.93 1017.08 1017.22 1017.34 1017.42 1017.44 1017.38 1017.27 1017.10 1016.90 1016.71 1016.56 1016.47 1016.46 1016.53 1016.68 1016.89 1017.13 1017.37 1017.60 1017.80 1017.96 1018.08 1018.17 1018.23 1018.28 1018.33 1018.40 1018.49 1018.60 1018.75
1012.69 1013.11 1013.59 1014.10 1014.60 1015.06 1015.46 1015.78 1016.04 1016.24 1016.40 1016.56 1016.72 1016.89 1017.07 1017.22 1017.34 1017.39 1017.36 1017.26 1017.09 1016.88 1016.66 1016.45 1016.30 1016.23 1016.24 1016.34 1016.50 1016.72 1016.97 1017.22 1017.45 1017.66 1017.83 1017.96 1018.05 1018.13 1018.19 1018.24 1018.31 1018.40 1018.51
1012.76 1013.21 1013.68 1014.17 1014.63 1015.04 1015.39 1015.66 1015.87 1016.03 1016.17 1016.31 1016.48 1016.66 1016.85 1017.03 1017.18 1017.26 1017.26 1017.18 1017.02 1016.80 1016.56 1016.31 1016.11 1015.97 1015.92 1015.95 1016.06 1016.23 1016.46 1016.71 1016.97 1017.21 1017.44 1017.63 1017.78 1017.90 1018.00 1018.08 1018.15 1018.23 1018.33
1012.91 1013.37 1013.83 1014.29 1014.70 1015.06 1015.34 1015.55 1015.71 1015.82 1015.93 1016.05 1016.20 1016.38 1016.58 1016.77 1016.94 1017.04 1017.07 1017.01 1016.87 1016.66 1016.41 1016.15 1015.91 1015.72 1015.59 1015.55 1015.59 1015.70 1015.88 1016.11 1016.37 1016.64 1016.91 1017.16 1017.39 1017.58 1017.74 1017.87 1017.97 1018.07 1018.17
1013.07 1013.53 1013.98 1014.40 1014.77 1015.07 1015.30 1015.45 1015.55 1015.62 1015.69 1015.78 1015.91 1016.07 1016.26 1016.45 1016.62 1016.75 1016.80 1016.77 1016.66 1016.48 1016.25 1015.98 1015.72 1015.49 1015.31 1015.19 1015.15 1015.19 1015.30 1015.48 1015.72 1015.99 1016.29 1016.58 1016.87 1017.13 1017.36 1017.56 1017.72 1017.85 1017.97
1013.19 1013.64 1014.07 1014.46 1014.78 1015.04 1015.21 1015.32 1015.37 1015.40 1015.43 1015.49 1015.58 1015.72 1015.88 1016.06 1016.24 1016.37 1016.45 1016.46 1016.40 1016.26 1016.06 1015.82 1015.57 1015.31 1015.09 1014.91 1014.80 1014.75 1014.79 1014.89 1015.08 1015.32 1015.61 1015.93 1016.25 1016.57 1016.86 1017.11 1017.33 1017.51 1017.65
1013.21 1013.64 1014.04 1014.39 1014.69 1014.90 1015.04 1015.11 1015.13 1015.13 1015.13 1015.15 1015.20 1015.30 1015.44 1015.60 1015.77 1015.91 1016.02 1016.07 1016.06 1015.98 1015.84 1015.65 1015.43 1015.19 1014.95 1014.74 1014.57 1014.45 1014.40 1014.43 1014.54 1014.72 1014.96 1015.26 1015.58 1015.90 1016.21 1016.50 1016.76 1016.97 1017.15
1013.13 1013.52 1013.89 1014.22 1014.48 1014.67 1014.78 1014.83 1014.83 1014.79 1014.76 1014.74 1014.76 1014.82 1014.92 1015.06 1015.21 1015.35 1015.48 1015.57 1015.61 1015.60 1015.54 1015.43 1015.26 1015.07 1014.85 1014.64 1014.43 1014.26 1014.15 1014.10 1014.12 1014.22 1014.39 1014.61 1014.88 1015.17 1015.46 1015.74 1016.00 1016.23 1016.43
1013.01 1013.35 1013.68 1013.97 1014.21 1014.38 1014.47 1014.49 1014.47 1014.40 1014.33 1014.28 1014.25 1014.27 1014.32 1014.42 1014.54 1014.68 1014.81 1014.94 1015.03 1015.09 1015.11 1015.07 1014.99 1014.87 1014.71 1014.52 1014.33 1014.14 1013.99 1013.87 1013.82 1013.83 1013.90 1014.03 1014.21 1014.41 1014.64 1014.86 1015.08 1015.29 1015.50
1012.93 1013.21 1013.49 1013.75 1013.96 1014.10 1014.17 1014.17 1014.11 1014.01 1013.90 1013.79 1013.71 1013.66 1013.66 1013.71 1013.79 1013.90 1014.02 1014.16 1014.29 1014.40 1014.48 1014.53 1014.53 1014.50 1014.41 1014.29 1014.14 1013.98 1013.83 1013.69 1013.58 1013.51 1013.49 1013.51 1013.57 1013.67 1013.78 1013.91 1014.06 1014.23 1014.41
1013.02 1013.24 1013.47 1013.68 1013.85 1013.96 1013.99 1013.94 1013.84 1013.68 1013.51 1013.34 1013.18 1013.07 1012.99 1012.96 1012.98 1013.04 1013.14 1013.25 1013.38 1013.51 1013.64 1013.74 1013.82 1013.87 1013.87 1013.83 1013.76 1013.66 1013.54 1013.42 1013.29 1013.19 1013.09 1013.02 1012.97 1012.95 1012.94 1012.96 1013.02 1013.11 1013.24
1013.38 1013.54 1013.72 1013.88 1014.00 1014.05 1014.02 1013.92 1013.74 1013.51 1013.26 1013.00 1012.75 1012.55 1012.38 1012.27 1012.20 1012.19 1012.21 1012.27 1012.36 1012.47 1012.60 1012.72 1012.84 1012.94 1013.02 1013.07 1013.08 1013.07 1013.02 1012.95 1012.86 1012.75 1012.63 1012.50 1012.38 1012.25 1012.14 1012.06 1012.01 1012.02 1012.10
1014.09 1014.20 1014.32 1014.42 1014.48 1014.46 1014.35 1014.16 1013.89 1013.57 1013.21 1012.85 1012.50 1012.19 1011.92 1011.70 1011.54 1011.42 1011.35 1011.32 1011.33 1011.37 1011.44 1011.53 1011.64 1011.75 1011.87 1011.98 1012.07 1012.14 1012.19 1012.20 1012.17 1012.11 1012.01 1011.89 1011.73 1011.56 1011.39 1011.23 1011.11 1011.04 1011.06
1015.15 1015.21 1015.28 1015.33 1015.31 1015.20 1015.01 1014.71 1014.34 1013.90 1013.43 1012.96 1012.50 1012.08 1011.70 1011.38 1011.10 1010.86 1010.67 1010.52 1010.40 1010.33 1010.29 1010.29 1010.33 1010.40 1010.50 1010.62 1010.75 1010.89 1011.01 1011.11 1011.17 1011.19 1011.17 1011.09 1010.97 1010.81 1010.63 1010.45 1010.30 1010.20 1010.17
1016.48 1016.51 1016.53 1016.51 1016.42 1016.22 1015.93 1015.53 1015.04 1014.50 1013.92 1013.34 1012.79 1012.27 1011.79 1011.36 1010.97 1010.61 1010.29 1010.00 1009.73 1009.50 1009.31 1009.17 1009.07 1009.04 1009.06 1009.13 1009.24 1009.39 1009.56 1009.72 1009.87 1009.98 1010.05 1010.07 1010.03 1009.95 1009.82 1009.68 1009.54 1009.44 1009.39
1017.93 1017.93 1017.91 1017.84 1017.67 1017.40 1017.01 1016.52 1015.94 1015.30 1014.63 1013.97 1013.34 1012.74 1012.18 1011.67 1011.18 1010.72 1010.28 1009.85 1009.42 1009.02 1008.65 1008.32 1008.05 1007.85 1007.72 1007.68 1007.71 1007.80 1007.95 1008.13 1008.33 1008.52 1008.68 1008.81 1008.88 1008.91 1008.88 1008.83 1008.76 1008.70 1008.67
Thickness
5761 5759 5758 5757 5756 5755 5754 5753 5752 5751 5750 5749 5748 5747 5745 5741 5739 5738 5736 5734 5733 5732 5730 5728 5726 5724 5723 5721 5719 5718 5716 5715 5713 5712 5710 5709 5708 5706 5705 5704 5703 5701 5700
5760 5759 5757 5756 5755 5754 5753 5752 5751 5750 5749 5748 5747 5745 5744 5742 5740 5738 5736 5734 5732 5731 5730 5728 5726 5724 5722 5721 5719 5718 5716 5714 5713 5711 5710 5708 5707 5706 5704 5703 5702 5700 5699
5760 5758 5756 5755 5755 5754 5753 5752 5751 5749 5748 5747 5745 5744 5743 5741 5739 5737 5735 5733 5732 5730 5729 5727 5725 5724 5722 5720 5719 5717 5716 5714 5712 5711 5709 5708 5706 5705 5704 5702 5701 5699 5698
5760 5758 5756 5755 5754 5753 5752 5751 5749 5747 5746 5745 5743 5742 5741 5740 5739 5737 5735 5733 5732 5730 5728 5727 5726 5724 5722 5720 5718 5717 5716 5714 5712 5711 5709 5707 5706 5705 5703 5702 5700 5699 5697
5759 5757 5755 5754 5753 5752 5751 5750 5748 5746 5744 5743 5742 5741 5740 5739 5738 5736 5735 5733 5731 5730 5729 5727 5726 5724 5723 5721 5718 5717 5715 5714 5712 5711 5709 5707 5706 5705 5703 5702 5700 5699 5697
5757 5756 5754 5753 5751 5750 5748 5747 5745 5744 5743 5742 5741 5739 5739 5739 5738 5737 5735 5734 5732 5730 5729 5727 5726 5724 5722 5720 5718 5717 5716 5714 5712 5711 5709 5708 5706 5705 5703 5702 5700 5699 5697
5756 5754 5753 5751 5750 5748 5747 5746 5744 5742 5740 5740 5736 5732 5734 5737 5736 5736 5735 5734 5732 5731 5729 5727 5725 5724 5722 5720 5718 5717 5716 5714 5712 5711 5710 5708 5706 5705 5704 5702 5701 5699 5697
5754 5753 5751 5749 5748 5746 5744 5744 5742 5739 5738 5738 5733 5726 5722 5725 5731 5735 5734 5733 5732 5731 5729 5727 5726 5724 5722 5720 5718 5716 5715 5714 5712 5711 5709 5708 5707 5705 5704 5702 5701 5699 5698
5753 5752 5750 5748 5747 5745 5743 5742 5741 5738 5734 5735 5735 5728 5719 5716 5721 5728 5731 5732 5731 5729 5729 5728 5726 5724 5722 5720 5719 5717 5715 5714 5712 5711 5709 5708 5707 5705 5704 5702 5701 5699 5698
5752 5751 5749 5747 5745 5744 5742 5741 5741 5739 5735 5732 5732 5733 5730 5726 5719 5718 5724 5728 5729 5728 5728 5727 5726 5725 5723 5721 5720 5718 5716 5714 5713 5711 5710 5708 5706 5705 5704 5702 5701 5699 5698
5750 5749 5748 5746 5744 5743 5742 5741 5740 5738 5736 5733 5731 5730 5729 5727 5725 5718 5716 5720 5724 5727 5728 5728 5727 5725 5723 5722 5720 5719 5717 5715 5713 5711 5710 5708 5706 5704 5703 5702 5700 5699 5698
5748 5747 5747 5745 5743 5742 5741 5740 5739 5738 5736 5734 5732 5731 5728 5725 5722 5720 5716 5717 5719 5724 5727 5727 5726 5726 5724 5722 5721 5719 5717 5715 5713 5711 5710 5708 5706 5704 5702 5701 5700 5699 5698
5746 5746 5746 5744 5743 5742 5741 5740 5738 5737 5736 5734 5732 5731 5730 5729 5728 5724 5720 5717 5718 5721 5724 5726 5727 5726 5725 5723 5721 5720 5717 5715 5713 5711 5710 5708 5706 5704 5702 5701 5700 5699 5697
5747 5747 5746 5744 5743 5742 5741 5739 5737 5736 5735 5734 5733 5731 5730 5729 5729 5727 5723 5718 5714 5715 5718 5722 5726 5726 5725 5723 5722 5719 5717 5715 5713 5711 5709 5707 5706 5704 5702 5701 5699 5698 5697
5748 5747 5745 5744 5742 5741 5740 5738 5736 5735 5734 5733 5732 5730 5729 5729 5729 5728 5726 5723 5716 5710 5711 5718 5722 5726 5724 5722 5721 5718 5717 5715 5713 5711 5709 5707 5705 5704 5703 5701 5700 5698 5697
5748 5746 5744 5743 5742 5740 5739 5737 5735 5734 5732 5731 5730 5729 5727 5727 5727 5726 5725 5724 5721 5716 5712 5717 5720 5724 5724 5722 5720 5718 5716 5714 5712 5710 5708 5706 5705 5703 5702 5701 5700 5698 5696
5746 5745 5744 5742 5740 5738 5737 5735 5733 5732 5730 5729 5728 5727 5726 5726 5725 5724 5723 5722 5720 5718 5713 5715 5719 5721 5721 5719 5718 5716 5714 5712 5711 5709 5707 5706 5704 5703 5702 5700 5699 5697 5695
5746 5745 5743 5741 5739 5738 5736 5734 5732 5730 5729 5727 5726 5725 5724 5724 5723 5722 5721 5720 5719 5718 5714 5711 5714 5715 5716 5716 5715 5713 5712 5711 5710 5708 5707 5705 5704 5702 5700 5699 5697 5695 5694
5745 5744 5741 5739 5738 5736 5734 5733 5731 5729 5728 5726 5724 5723 5722 5721 5719 5719 5718 5717 5717 5717 5714 5710 5709 5711 5712 5712 5710 5709 5709 5708 5708 5707 5706 5705 5703 5701 5699 5697 5695 5694 5692
5744 5742 5741 5739 5737 5735 5733 5731 5729 5727 5726 5724 5723 5722 5720 5719 5718 5718 5717 5715 5714 5712 5710 5707 5704 5705 5705 5707 5705 5702 5701 5703 5703 5705 5704 5703 5701 5699 5697 5695 5694 5692 5690
5743 5741 5739 5737 5736 5734 5732 5730 5728 5726 5723 5721 5720 5720 5719 5719 5719 5717 5715 5713 5711 5708 5705 5702 5700 5699 5699 5699 5699 5699 5697 5697 5698 5700 5699 5698 5697 5696 5694 5693 5691 5690 5687
5740 5738 5736 5734 5733 5733 5732 5729 5727 5724 5722 5719 5717 5717 5717 5716 5716 5715 5714 5712 5710 5705 5701 5699 5696 5694 5695 5696 5696 5695 5692 5690 5689 5694 5692 5692 5692 5690 5690 5689 5688 5686 5684
5737 5735 5733 5732 5729 5729 5728 5726 5724 5722 5720 5718 5715 5713 5713 5714 5712 5710 5709 5708 5706 5705 5703 5699 5695 5694 5693 5694 5693 5691 5688 5686 5685 5688 5686 5684 5685 5684 5685 5685 5684 5682 5680
5733 5731 5730 5728 5726 5725 5725 5722 5721 5718 5716 5714 5713 5711 5709 5708 5708 5706 5704 5702 5701 5700 5699 5697 5696 5695 5694 5693 5691 5689 5686 5684 5683 5682 5681 5677 5678 5677 5680 5678 5677 5676 5673
5728 5727 5725 5723 5721 5720 5720 5718 5716 5712 5710 5708 5707 5706 5705 5704 5703 5702 5699 5696 5695 5695 5695 5694 5693 5691 5690 5688 5686 5683 5679 5675 5672 5673 5673 5670 5670 5669 5670 5670 5670 5668 5666
5723 5721 5719 5718 5716 5715 5714 5713 5711 5707 5704 5702 5701 5700 5700 5698 5697 5696 5693 5691 5689 5688 5688 5688 5686 5685 5683 5681 5679 5677 5674 5668 5665 5663 5665 5662 5661 5658 5657 5661 5660 5658 5656